Location: Mahannah Oil Field
(37.4664°N, 96.6003°W)
Time: 02:10:44
(UTC+00:00)

deb Explorer IX - Pass Details

Date: 23 January 2021
Orbit: 537 x 1102 km, 38.8° (Epoch: 25 February)

Event Time Altitude Azimuth Distance (km) Brightness Sun altitude
Rises 01:37:03 0° 257° (WSW) 3,601 ? -23.1°
Reaches altitude 10° 01:39:51 10° 258° (WSW) 2,568 ? -23.7°
Maximum altitude 01:45:57 89° 343° (NNW) 797 ? -24.9°
Enters shadow 01:46:34 72° 74° (ENE) 823 ? -25.0°
Drops below altitude 10° 01:51:05 10° 79° (E) 2,173 - -25.9°
Sets 01:53:18 0° 79° (E) 3,011 - -26.3°
